Regional Weather Roundup
Issued by NWS

Home | Current Version | Previous Version | Graphics & Text | Print | Product List | Glossary On
Versions: 1 2 3 4 5 6 7 8 9 10 11 12 13 14 15 16 17 18 19 20 21 22 23 24 25 26 27 28 29 30 31 32 33 34 35 36 37 38 39 40 41 42 43 44 45 46 47 48 49 50
000
ASUS43 KFSD 311502
RWRSD

WEATHER ROUNDUP FOR SOUTH DAKOTA
NATIONAL WEATHER SERVICE SIOUX FALLS SD
1000 AM CDT WED AUG 31 2016

NOTE: "FAIR" INDICATES FEW OR NO CLOUDS BELOW 12,000 FEET WITH NO
SIGNIFICANT WEATHER AND/OR OBSTRUCTIONS TO VISIBILITY.


SDZ001>005-009-010-012>017-311600-
NORTHWEST AND NORTH CENTRAL SOUTH DAKOTA

CITY           SKY/WX    TMP DP  RH WIND       PRES   REMARKS
BUFFALO          N/A     69  61  75 SE7       30.11R
MOBRIDGE       MOSUNNY   73  59  61 SE17      30.19S
$$

SDZ012>016-024>037-041>051-057-063-072>074-311600-
SOUTHWEST AND SOUTH CENTRAL SOUTH DAKOTA

CITY           SKY/WX    TMP DP  RH WIND       PRES   REMARKS
RAPID CTY ARPT SUNNY     69  61  75 SE7       30.19S
PIERRE         PTSUNNY   69  66  90 E13       30.22R
CUSTER         SUNNY     65  53  65 CALM      30.32S
ELLSWORTH AFB  SUNNY     68  61  77 S12       30.18S
PHILIP         SUNNY     69  63  81 E7        30.20R
PINE RIDGE     CLOUDY    63  63 100 SW8       30.25R
WINNER         FAIR      74  66  76 E6        30.24R
$$

SDZ004>011-016>023-039-040-311600-
NORTHEAST SOUTH DAKOTA

CITY           SKY/WX    TMP DP  RH WIND       PRES   REMARKS
ABERDEEN       CLOUDY    66  60  81 S5        30.25R
WATERTOWN      CLOUDY    68  58  70 CALM      30.25S
SISSETON         N/A     71  59  65 CALM      30.24S
$$

SDZ017-020-022-023-036>040-048>070-311600-
SOUTHEAST SOUTH DAKOTA

CITY           SKY/WX    TMP DP  RH WIND       PRES   REMARKS
SIOUX FALLS    MOSUNNY   72  61  68 N3        30.24S
HURON          LGT RAIN  65  59  81 S7        30.20F
CHAMBERLAIN    PTSUNNY   72  70  94 E6        30.24S
MITCHELL       CLOUDY    73  66  78 SE6       30.23F
YANKTON        SUNNY     66  63  88 SE5       30.22S
$$

ABBREVIATIONS USED IN REMARKS
   TC - TEMPERATURE IN CELSIUS
  WCI - WIND CHILL INDEX
   HX - HEAT INDEX
  VSB - VISIBILITY




USA.gov is the U.S. government's official web portal to all federal, state and local government web resources and services.